Showing default

IRIDIUM 28, 24948

Orbit data source: Space-Track

IRIDIUM 28, 24948 is a payload satellite owned by Iridium (US) in LEO that was launched on Sun, 14 Sep 1997 UTC via a PROTON-K/17S40 launch vehicle from the Tyuratam Missile And Space Complex (TTMTR). Payload-class satellites include a variety of spacecraft equipped with specific instruments for various scientific and technological missions. These include communications satellites like Starlink; space stations such as the ISS; scientific satellites like the Hubble; Earth observation satellites from companies like Planet Labs, Umbra, and HawkEye 360; GPS; miniature CubeSats for education and research; and military/defense satellites.

Loading next visibility...
Identifier
24948, 1997-051E
Orbit
LEO
Country
Flag of USUS
Related business
Manufacturer
MOTO/LMMS
Mission
Non-operational Commercial Communications
Bus & Motor
LM700, Unknown motor
Mass
662 kg wet, 556 kg dry
Launch date (UTC)
1997-09-14 (29 years ago)
Launch vehicle
PROTON-K/17S40
Launch site
Tyuratam Missile And Space Complex (TTMTR)
Object type
Payload
Rocket body
Debris
Shape & HBR
Box + 2 Pan, 4.0 m
Radar Cross Section
5.666 m², Large (>1 m²)

Expand to show TLE details & history
Last TLE update: 12 hours ago

TLE from 12 hours ago
0 IRIDIUM 28
1 24948U 97051E   26208.77735656  .00000321  00000-0  10009-3 0  9992
2 24948  86.3997 330.9018 0002197 107.0946 253.0492 14.37720724512113
Epoch: 2026-07-27T18:39Z
TLE epoch observation values (Epoch: 2026-07-27T18:39:23.606Z)
Latitude
-0.00009°
Longitude
105.59737°
Altitude
769.553 km
Speed
7.469 km/s
True Right ascension
22h 03m 36s
True Declination
0° 00' 00"
Sunlit
Object was in full shadow at epoch
Visualization orbit readout
Latitude
Unknown
Longitude
Unknown
Altitude
Unknown
Speed
Unknown
Apparent Right ascension
Unknown
Apparent Declination
Unknown
Sunlit
N/A
Visualization observer readout
Local Sidereal Time
20:04:30
Azimuth
Unknown
Elevation
Unknown
Doppler factor
Unknown
Orbital elements
Apogee altitude
764.568 km
Perigee altitude
761.43 km
Semi-major axis
7,141.136 km
Eccentricity
0.00022
Inclination
86.3997°
RAAN
330.9018°
Arg. of periapsis
107.0946°
True anomaly
253.02512°
Mean anomaly
253.0492°
Eccentric anomaly
253.03716°
Mean motion
3.5966 °/min
Orbital period
100.09 mins
BSTAR
0.00010009
Loading maneuver chart data...
Computing Atmospheric mass density...

Documentation

Showing up to 5 results
|